Location: *
(44.3925°N, 5.4708°E)
Time: 00:53:36
(UTC+00:00)

Aureole 1 Rocket - Pass Details

Date: 18 September 2019
Orbit: 379 x 1383 km, 73.9° (Epoch: 20 October)

Event Time Altitude Azimuth Distance (km) Brightness Sun altitude
Rises 18:30:35 0° 339° (NNW) 3,512 7.4 -9.1°
Reaches altitude 10° 18:33:23 10° 340° (NNW) 2,394 6.5 -9.6°
Maximum altitude 18:38:43 84° 66° (ENE) 656 3.1 -10.5°
Drops below altitude 10° 18:42:42 10° 158° (SSE) 1,802 5.1 -11.2°
Enters shadow 18:43:58 - 159° (SSE) 2,320 5.7 -11.4°
